Theta_e
300 299 297 297 297 297 299 299 299 299 301 301 301 301 300 300 300 300 300 300 300 300 300 301 301 302 302
299 297 296 295 295 296 295 295 295 294 296 296 298 298 297 297 297 297 297 297 297 297 297 297 298 298 299
298 296 295 295 295 295 294 292 291 291 292 292 294 294 295 295 294 294 294 294 294 294 295 295 295 296 296
298 296 295 294 293 293 292 291 291 289 289 288 288 288 289 291 293 293 293 292 292 292 291 291 292 292 293
297 295 294 292 292 290 290 289 289 288 287 288 287 287 287 287 287 287 287 288 288 288 289 290 291 291 292
294 293 290 289 289 289 288 288 289 287 287 286 287 287 287 287 286 285 285 286 287 288 289 290 291 291 291
289 289 288 288 288 287 287 287 287 286 285 287 287 287 287 287 287 286 286 286 287 289 290 290 290 290 290
288 287 287 286 286 286 286 286 287 286 286 286 287 287 287 286 286 286 287 288 288 289 289 288 289 289 289
287 286 285 286 286 286 287 287 288 286 285 285 286 286 286 286 286 286 287 287 287 287 287 287 288 288 288
284 283 284 285 285 285 286 286 286 286 285 284 284 284 284 286 286 285 286 286 286 286 286 286 287 287 286
285 284 285 285 284 284 284 284 284 284 284 284 283 283 284 284 284 284 285 285 285 285 285 285 285 286 286
285 285 285 285 285 284 284 283 283 283 283 282 281 282 282 282 282 284 284 284 284 284 284 283 284 284 285
284 285 285 285 285 284 282 282 282 281 281 281 281 281 281 281 282 282 282 283 282 283 283 283 283 283 283
284 285 285 285 284 283 282 282 282 282 282 282 281 281 280 280 280 281 281 281 283 282 282 283 283 282 282
284 284 284 284 283 283 282 282 281 281 281 282 282 282 281 281 280 281 281 281 282 282 283 283 283 282 282
283 283 284 284 284 283 283 282 281 281 281 281 281 281 281 281 281 281 280 282 283 282 283 282 282 283 283
283 283 283 283 283 283 283 282 282 281 281 281 281 281 280 280 280 281 282 283 283 282 282 282 282 282 282
Wind_Speed
4 2 1 2 2 2 1 1 1 2 1 2 3 3 4 3 2 2 2 3 4 4 2 2 3 3 4
4 3 2 2 3 3 3 2 3 4 6 5 4 4 1 1 1 1 2 2 2 2 4 3 1 2 2
5 4 2 3 4 5 5 6 6 6 6 6 5 4 7 6 5 4 3 3 2 3 4 5 5 5 3
7 4 3 3 3 4 5 3 1 2 4 6 5 5 2 1 2 2 3 3 3 2 2 3 5 5 5
6 5 4 4 4 2 3 2 2 4 2 2 4 1 0 3 3 4 5 7 7 7 6 4 3 2 2
5 4 5 4 3 1 2 1 1 3 7 2 4 2 2 5 4 3 3 3 3 3 3 3 3 4 3
7 6 6 3 2 3 2 2 1 5 6 4 4 3 3 4 5 5 3 2 3 4 4 6 5 5 6
6 5 4 4 2 3 2 1 0 1 5 1 4 3 4 3 4 6 1 2 4 6 6 5 7 5 6
4 4 4 4 3 4 3 2 2 2 3 2 3 8 5 4 4 1 1 2 4 6 6 4 5 6 9
5 4 4 4 5 3 2 4 1 1 1 3 3 6 4 1 3 3 5 4 5 5 7 7 7 11 14
5 4 3 2 3 2 1 3 5 2 1 4 2 4 3 6 9 6 6 7 8 8 11 11 10 11 14
6 6 5 6 6 6 5 4 5 6 8 7 5 3 4 7 7 6 11 12 14 14 10 11 11 11 14
8 7 9 10 10 9 6 6 6 6 7 9 11 10 11 11 12 16 16 6 17 12 8 7 12 14 15
8 7 9 10 10 7 5 6 8 9 7 8 10 11 15 17 18 20 16 11 9 16 17 17 16 15 16
12 11 12 11 9 7 9 9 10 11 11 10 10 12 14 16 20 21 20 22 21 17 15 19 20 18 17
14 15 15 15 14 13 13 13 14 14 13 12 11 12 15 18 21 26 20 19 14 12 13 17 24 24 20
17 18 17 17 16 17 17 17 18 16 15 12 13 13 8 7 12 13 22 20 17 18 18 19 24 31 27
Wind_Direction
159 243 211 141 81 77 157 161 142 77 12 19 39 17 51 77 114 165 185 191 200 197 179 240 257 251 242
155 172 182 128 88 127 113 73 44 67 74 73 14 340 355 299 226 180 164 169 189 184 182 188 199 147 113
159 193 140 130 121 105 87 83 56 66 67 44 57 74 85 92 111 125 144 158 170 167 166 173 192 207 227
134 151 142 131 117 125 133 107 87 52 57 36 43 53 36 263 241 237 230 223 201 196 220 237 243 237 234
156 147 144 155 138 103 120 85 77 21 48 64 2 33 66 306 276 273 259 253 250 249 249 247 248 199 182
151 172 150 136 149 115 78 79 109 25 6 15 11 60 325 312 305 306 270 239 234 229 229 221 207 225 229
158 138 153 168 193 143 113 118 53 342 351 84 26 53 23 344 341 323 288 247 228 209 214 202 217 231 244
155 159 156 141 132 142 145 114 156 25 16 78 357 304 290 307 308 326 298 201 188 198 211 234 219 235 235
141 147 158 168 156 147 127 113 92 163 1 354 336 324 305 287 286 282 254 267 268 258 255 259 251 253 254
137 140 141 131 171 198 185 166 107 199 343 345 337 350 338 194 351 312 276 257 282 296 288 272 263 266 274
157 154 155 151 168 203 236 226 193 223 306 320 313 344 306 308 304 285 286 308 295 287 271 276 279 278 283
185 192 196 207 231 247 249 250 262 247 252 276 267 256 285 297 279 290 294 280 281 288 295 299 292 279 272
211 212 226 231 240 260 276 279 279 274 283 270 265 265 259 260 274 288 313 298 296 294 297 309 307 299 293
230 236 245 244 249 249 251 264 275 285 286 274 267 265 268 266 272 281 283 279 268 293 299 298 295 287 282
226 229 242 251 247 232 246 253 259 277 281 279 272 276 276 280 275 271 270 275 284 295 294 290 289 288 291
235 233 238 239 242 239 243 244 254 262 271 275 273 275 284 287 263 264 271 277 295 288 284 287 291 295 302
239 238 240 240 238 241 245 251 253 257 261 265 262 258 259 271 277 273 263 278 292 284 281 281 282 290 296